#timestamp,LO_Frequency,Hit,StdDev 
1508468415.8,286047003.4,N
1508468435.7,286047004.1,N
1508468455.5,286047002.3,N
1508468475.3,286047001.4,N
1508468495.2,286046999.1,N
1508468515.9,286046998.1,N
1508468535.7,286046994.0,N
1508468555.6,286046994.2,N
1508468575.4,286046996.0,N
1508468595.2,286046991.7,Y
1508468615.1,286046990.6,P
1508468616.0,286046990.6,N
1508468635.8,286046990.6,N
1508468655.6,286046993.0,N
1508468675.4,286046994.2,N
1508468695.3,286046994.3,N
1508468715.1,286046994.7,N
1508468735.8,286046996.2,N
1508468755.7,286046996.0,N
1508468775.5,286046992.1,N
1508468795.3,286046992.1,N
1508468815.2,286046992.6,N
1508468835.9,286046988.9,Y
1508468855.7,286046995.9,P
1508468875.6,286046995.5,P
1508468895.4,286046997.6,N
1508468915.2,286046996.5,N
1508468935.1,286046998.0,N
1508468936.0,286046998.0,N
1508468955.8,286046995.5,Y
1508468975.6,286046998.7,P
1508468995.5,286046999.0,N
1508469015.3,286046997.2,N
1508469035.1,286046996.6,Y
1508469055.9,286046997.3,P
1508469075.7,286046997.4,P
1508469095.5,286046999.0,P
1508469115.4,286046999.4,N
1508469135.2,286046996.9,Y
1508469155.0,286046999.7,P
1508469155.9,286046999.7,N
1508469175.8,286047000.4,N
1508469195.6,286046998.7,N
1508469215.4,286046999.0,N
1508469235.3,286046998.9,N
1508469255.1,286046996.8,Y
1508469275.8,286046994.6,P
1508469295.7,286046998.1,N
1508469315.5,286047003.2,N
1508469335.3,286047008.7,N
1508469355.2,286047009.7,N
1508469375.9,286047015.2,N
1508469395.7,286047016.6,N
1508469415.6,286047017.1,N
1508469435.4,286047017.0,N
1508469455.2,286047016.3,N
1508469475.1,286047015.7,N
1508469476.0,286047015.7,N
1508469495.8,286047017.4,N
1508469515.6,286047019.2,N
1508469535.4,286047019.4,N
1508469555.3,286047019.3,N
1508469575.1,286047021.7,N
1508469595.8,286047020.8,N
1508469615.7,286047023.4,N
1508469635.5,286047024.6,Y
1508469655.3,286047015.2,P
1508469675.2,286047013.2,P
1508469695.0,286047011.8,P
1508469695.9,286047011.8,Y
1508469715.8,286046995.8,P
1508469735.6,286046992.0,N
1508469755.4,286046996.4,N
1508469775.2,286046998.0,N
1508469795.1,286046999.6,N
1508469796.0,286046999.6,N
1508469815.8,286046999.1,N
1508469835.6,286046999.4,N
1508469855.5,286046997.2,N
1508469875.3,286046994.9,N
1508469895.1,286046993.8,N
1508469915.9,286046993.3,N
1508469935.7,286046996.9,N
1508469955.5,286046995.4,N
1508469975.4,286046994.7,N
1508469995.2,286046993.7,N
1508470015.0,286046997.9,N
1508470015.9,286046997.9,N
1508470035.8,286046995.0,N
1508470055.6,286046994.7,N
1508470075.4,286046994.1,N
1508470095.3,286046990.2,N
1508470115.1,286046989.1,N
1508470116.0,286046989.1,N
1508470135.8,286046989.7,N
1508470155.7,286046987.0,N
1508470175.5,286046991.5,N
1508470195.3,286046989.6,N
1508470215.1,286046987.6,N
1508470235.9,286046985.9,N
1508470255.7,286046987.1,Y
1508470275.5,286046998.0,P
1508470295.4,286046996.2,N
1508470315.2,286046991.7,P
1508470335.1,286046989.2,Y
1508470336.0,286046989.2,P
1508470355.8,286046994.0,N
1508470375.6,286046990.6,P
1508470395.5,286046988.7,Y
1508470415.3,286046996.7,P
1508470435.1,286046999.6,N
1508470455.8,286046999.2,N
1508470475.7,286046997.5,N
1508470495.5,286046995.0,N
1508470515.3,286046999.5,N
1508470535.2,286046997.0,N
1508470555.9,286046997.5,N
1508470575.7,286046998.0,N
1508470595.6,286046997.1,N
1508470615.4,286046998.5,N
1508470635.2,286046998.1,N
1508470655.1,286047001.0,N
1508470656.0,286047001.0,N
1508470675.8,286047001.2,N
1508470695.6,286046998.5,N
1508470715.5,286046999.0,N
1508470735.3,286047000.0,N
1508470755.1,286046999.0,N
1508470775.9,286046999.8,N
1508470795.7,286047001.1,N
1508470815.5,286047000.9,N
1508470835.4,286046997.0,N
1508470855.2,286046999.6,N
1508470875.0,286047000.1,N
1508470875.9,286047000.1,N
1508470895.7,286046998.1,N
1508470915.6,286046998.2,N
1508470935.4,286047000.5,N
1508470955.2,286047001.1,N
1508470975.1,286046998.7,N
1508470976.0,286046998.7,N
1508470995.8,286046998.7,N
1508471015.6,286046998.8,N
1508471035.5,286046999.3,N
1508471055.3,286046997.9,N
1508471075.1,286046995.9,Y
1508471095.9,286046996.0,P
1508471115.7,286046993.5,P
1508471135.5,286046993.4,N
1508471155.4,286046999.4,N
1508471175.2,286046998.5,N
1508471195.0,286046998.2,N
1508471195.9,286046998.2,N
1508471215.8,286047004.3,N
1508471235.6,286047004.6,N
1508471255.4,286047005.2,N
1508471275.3,286047008.5,N
1508471295.1,286047013.3,N
1508471296.0,286047013.3,N
1508471315.8,286047015.6,N
1508471335.7,286047011.0,N
1508471355.5,286047011.1,N
1508471375.3,286047015.5,N
1508471395.1,286047016.2,N
1508471415.9,286047014.6,N
1508471435.7,286047016.6,N
1508471455.5,286047018.0,N
1508471475.4,286047018.7,N
1508471495.2,286047019.2,N
1508471515.0,286047021.1,N
1508471515.9,286047021.1,N
1508471535.8,286047020.7,N
1508471555.6,286047023.2,N
1508471575.4,286047017.4,N
1508471595.3,286047014.0,N
1508471615.1,286047015.6,N
1508471616.0,286047015.6,N
1508471635.8,286047013.1,N
1508471655.7,286047013.3,N
1508471675.5,286047016.1,N
1508471695.3,286047014.0,N
1508471715.1,286047011.1,N
1508471735.9,286047012.3,N
1508471755.7,286047009.3,N
1508471775.6,286047013.9,Y
1508471795.4,286046999.0,P
1508471815.2,286046998.3,N
1508471835.0,286046996.7,N
1508471836.0,286046996.7,N
1508471855.8,286046996.9,N
1508471875.6,286046999.2,N
1508471895.4,286047001.4,N
1508471915.3,286046999.8,N
1508471935.1,286046999.4,N
1508471955.8,286046998.0,N
1508471975.7,286046997.5,N
1508471995.5,286046999.6,N
